| time (UTC) | temp F | wind direction | speed MPH | gust MPH | rain 1hr in | rain 24hr in | rain mn in | humidity % | barometer mb |
| 20260902164507 | 94 | 257 | 2.0 | 5.0 | 0.00 | 0.00 | 0.00 | 43 | 1018.1 |
| 20260902163018 | 93 | 144 | 2.0 | 7.0 | 0.00 | 0.00 | 0.00 | 44 | 1018.2 |
| 20260902161536 | 92 | 202 | 1.0 | 5.0 | 0.00 | 0.00 | 0.00 | 46 | 1018.3 |
| 20260902160018 | 91 | 232 | 1.0 | 5.0 | 0.00 | 0.00 | 0.00 | 49 | 1018.3 |
| 20260902154508 | 90 | 164 | 2.0 | 6.0 | 0.00 | 0.00 | 0.00 | 48 | 1018.3 |
| 20260902153012 | 89 | 185 | 2.0 | 7.0 | 0.00 | 0.00 | 0.00 | 51 | 1018.4 |
| 20260902151506 | 88 | 342 | 1.0 | 6.0 | 0.00 | 0.00 | 0.00 | 56 | 1018.4 |
| 20260902150027 | 86 | 176 | 2.0 | 5.0 | 0.00 | 0.00 | 0.00 | 57 | 1018.4 |
| 20260902144507 | 85 | 217 | 0.0 | 4.0 | 0.00 | 0.00 | 0.00 | 60 | 1018.4 |
| 20260902143015 | 83 | 212 | 1.0 | 3.0 | 0.00 | 0.00 | 0.00 | 64 | 1018.6 |
| 20260902141529 | 81 | 182 | 1.0 | 4.0 | 0.00 | 0.00 | 0.00 | 69 | 1018.8 |
| 20260902140016 | 79 | 165 | 1.0 | 4.0 | 0.00 | 0.00 | 0.00 | 74 | 1018.9 |
| 20260902134512 | 76 | 321 | 0.0 | 1.0 | 0.00 | 0.00 | 0.00 | 79 | 1018.9 |
| 20260902133011 | 75 | 310 | 0.0 | 1.0 | 0.00 | 0.00 | 0.00 | 81 | 1018.9 |
| 20260902131518 | 74 | 310 | 0.0 | 1.0 | 0.00 | 0.00 | 0.00 | 84 | 1018.7 |
| 20260902130013 | 72 | 310 | 0.0 | 0.0 | 0.00 | 0.00 | 0.00 | 87 | 1018.8 |
| 20260902124516 | 71 | 311 | 0.0 | 0.0 | 0.00 | 0.00 | 0.00 | 89 | 1018.7 |
| 20260902123017 | 70 | 311 | 0.0 | 1.0 | 0.00 | 0.00 | 0.00 | 90 | 1018.6 |
| 20260902121512 | 70 | 311 | 0.0 | 1.0 | 0.00 | 0.00 | 0.00 | 91 | 1018.3 |
| 20260902120021 | 70 | 311 | 0.0 | 1.0 | 0.00 | 0.00 | 0.00 | 90 | 1018.3 |
| 20260902114527 | 70 | 311 | 0.0 | 0.0 | 0.00 | 0.00 | 0.00 | 90 | 1018.1 |
| 20260902113026 | 70 | 312 | 0.0 | 1.0 | 0.00 | 0.00 | 0.00 | 89 | 1017.9 |
| 20260902111518 | 70 | 312 | 0.0 | 0.0 | 0.00 | 0.00 | 0.00 | 89 | 1017.9 |
| 20260902110023 | 70 | 312 | 0.0 | 1.0 | 0.00 | 0.00 | 0.00 | 89 | 1017.7 |
| 20260902104536 | 71 | 312 | 0.0 | 0.0 | 0.00 | 0.00 | 0.00 | 88 | 1017.7 |
| 20260902103026 | 71 | 312 | 0.0 | 0.0 | 0.00 | 0.00 | 0.00 | 87 | 1017.6 |
| 20260902101533 | 71 | 312 | 0.0 | 1.0 | 0.00 | 0.00 | 0.00 | 88 | 1017.5 |
| 20260902100004 | 71 | 312 | 0.0 | 0.0 | 0.00 | 0.00 | 0.00 | 86 | 1017.6 |
| 20260902094512 | 71 | 312 | 0.0 | 0.0 | 0.00 | 0.00 | 0.00 | 89 | 1017.7 |
| 20260902093005 | 71 | 312 | 0.0 | 1.0 | 0.00 | 0.00 | 0.00 | 89 | 1017.5 |
| 20260902091506 | 72 | 312 | 0.0 | 0.0 | 0.00 | 0.00 | 0.00 | 87 | 1017.5 |
| 20260902090008 | 71 | 312 | 0.0 | 0.0 | 0.00 | 0.00 | 0.00 | 88 | 1017.5 |
| 20260902084510 | 71 | 312 | 0.0 | 0.0 | 0.00 | 0.00 | 0.00 | 87 | 1017.5 |
| 20260902083010 | 71 | 312 | 0.0 | 0.0 | 0.00 | 0.00 | 0.00 | 88 | 1017.5 |
| 20260902081515 | 71 | 312 | 0.0 | 1.0 | 0.00 | 0.00 | 0.00 | 88 | 1017.5 |
| 20260902080007 | 72 | 312 | 0.0 | 0.0 | 0.00 | 0.00 | 0.00 | 86 | 1017.4 |
| 20260902074516 | 72 | 312 | 0.0 | 1.0 | 0.00 | 0.00 | 0.00 | 86 | 1017.3 |
| 20260902073017 | 72 | 312 | 0.0 | 0.0 | 0.00 | 0.00 | 0.00 | 86 | 1017.4 |
| 20260902071512 | 73 | 312 | 0.0 | 1.0 | 0.00 | 0.00 | 0.00 | 84 | 1017.6 |
| 20260902070022 | 73 | 312 | 0.0 | 1.0 | 0.00 | 0.00 | 0.00 | 84 | 1017.5 |
| 20260902064514 | 73 | 312 | 0.0 | 1.0 | 0.00 | 0.00 | 0.00 | 83 | 1017.4 |
| 20260902063013 | 73 | 312 | 0.0 | 1.0 | 0.00 | 0.00 | 0.00 | 83 | 1017.5 |
| 20260902061506 | 74 | 312 | 0.0 | 1.0 | 0.00 | 0.00 | 0.00 | 83 | 1017.3 |
| 20260902060018 | 74 | 317 | 0.0 | 1.0 | 0.00 | 0.00 | 0.00 | 81 | 1017.5 |
| 20260902054519 | 75 | 23 | 0.0 | 1.0 | 0.00 | 0.00 | 0.00 | 80 | 1017.5 |
| 20260902053032 | 75 | 23 | 0.0 | 1.0 | 0.00 | 0.00 | 0.00 | 80 | 1017.4 |
| 20260902051519 | 75 | 21 | 0.0 | 2.0 | 0.00 | 0.00 | 0.00 | 79 | 1017.3 |
| 20260902050012 | 75 | 311 | 0.0 | 2.0 | 0.00 | 0.00 | 0.00 | 78 | 1017.3 |
| 20260902044518 | 76 | 360 | 0.0 | 3.0 | 0.00 | 0.00 | 0.00 | 76 | 1017.1 |
| 20260902043028 | 76 | 352 | 0.0 | 2.0 | 0.00 | 0.00 | 0.00 | 76 | 1017.0 |
| 20260902041529 | 77 | 348 | 0.0 | 2.0 | 0.00 | 0.00 | 0.00 | 75 | 1017.0 |
| 20260902040024 | 77 | 29 | 0.0 | 1.0 | 0.00 | 0.00 | 0.00 | 74 | 1016.9 |
| 20260902034515 | 78 | 37 | 0.0 | 1.0 | 0.00 | 0.00 | 0.00 | 73 | 1017.0 |
| 20260902033020 | 79 | 39 | 0.0 | 1.0 | 0.00 | 0.00 | 0.00 | 69 | 1016.8 |
| 20260902031511 | 80 | 61 | 0.0 | 2.0 | 0.00 | 0.00 | 0.00 | 67 | 1016.6 |
| 20260902030029 | 81 | 346 | 0.0 | 2.0 | 0.00 | 0.00 | 0.00 | 65 | 1016.5 |
| 20260902024513 | 82 | 80 | 0.0 | 3.0 | 0.00 | 0.00 | 0.00 | 64 | 1016.2 |
| 20260902023011 | 83 | 36 | 0.0 | 2.0 | 0.00 | 0.00 | 0.00 | 61 | 1016.0 |
| 20260902021518 | 84 | 80 | 0.0 | 2.0 | 0.00 | 0.00 | 0.00 | 59 | 1016.0 |
| 20260902020020 | 84 | 196 | 0.0 | 2.0 | 0.00 | 0.00 | 0.00 | 58 | 1015.7 |
| 20260902014532 | 85 | 65 | 0.0 | 2.0 | 0.00 | 0.00 | 0.00 | 55 | 1015.5 |
| 20260902013016 | 85 | 59 | 0.0 | 3.0 | 0.00 | 0.00 | 0.00 | 53 | 1015.6 |
| 20260902011534 | 86 | 205 | 0.0 | 2.0 | 0.00 | 0.00 | 0.00 | 51 | 1015.5 |
| 20260902010034 | 87 | 317 | 0.0 | 2.0 | 0.00 | 0.00 | 0.00 | 50 | 1015.5 |
| 20260902004511 | 88 | 21 | 0.0 | 1.0 | 0.00 | 0.00 | 0.00 | 48 | 1015.5 |
| 20260902003014 | 90 | 11 | 0.0 | 1.0 | 0.00 | 0.00 | 0.00 | 45 | 1015.5 |
| 20260902001518 | 92 | 214 | 0.0 | 2.0 | 0.00 | 0.00 | 0.00 | 42 | 1015.6 |
| 20260902000021 | 94 | 253 | 1.0 | 5.0 | 0.00 | 0.00 | 0.00 | 38 | 1015.5 |
| 20260901234528 | 95 | 321 | 0.0 | 3.0 | 0.00 | 0.00 | 0.00 | 37 | 1015.5 |
| 20260901233012 | 95 | 277 | 1.0 | 4.0 | 0.00 | 0.00 | 0.00 | 41 | 1015.6 |
| 20260901231524 | 96 | 11 | 1.0 | 4.0 | 0.00 | 0.00 | 0.00 | 38 | 1015.6 |
| 20260901230025 | 96 | 300 | 1.0 | 4.0 | 0.00 | 0.00 | 0.00 | 39 | 1015.8 |
| 20260901224529 | 97 | 173 | 2.0 | 7.0 | 0.00 | 0.00 | 0.00 | 37 | 1015.6 |
| 20260901223014 | 97 | 115 | 1.0 | 5.0 | 0.00 | 0.00 | 0.00 | 39 | 1015.7 |
| 20260901221522 | 97 | 245 | 1.0 | 4.0 | 0.00 | 0.00 | 0.00 | 41 | 1015.5 |
| 20260901220013 | 95 | 64 | 1.0 | 4.0 | 0.00 | 0.00 | 0.00 | 42 | 1015.5 |
| 20260901214528 | 98 | 194 | 2.0 | 5.0 | 0.00 | 0.00 | 0.00 | 35 | 1015.5 |
| 20260901213029 | 98 | 231 | 2.0 | 9.0 | 0.00 | 0.00 | 0.00 | 34 | 1015.7 |
| 20260901211514 | 97 | 264 | 1.0 | 3.0 | 0.00 | 0.00 | 0.00 | 38 | 1015.6 |
| 20260901210014 | 97 | 295 | 1.0 | 8.0 | 0.00 | 0.00 | 0.00 | 40 | 1015.9 |
| 20260901204515 | 95 | 221 | 0.0 | 4.0 | 0.00 | 0.00 | 0.00 | 47 | 1016.2 |
| 20260901203022 | 94 | 340 | 0.0 | 3.0 | 0.00 | 0.00 | 0.00 | 44 | 1016.3 |
| 20260901201517 | 97 | 325 | 1.0 | 6.0 | 0.00 | 0.00 | 0.00 | 38 | 1016.5 |
| 20260901200033 | 97 | 333 | 1.0 | 3.0 | 0.00 | 0.00 | 0.00 | 40 | 1016.7 |
| 20260901194522 | 96 | 38 | 2.0 | 5.0 | 0.00 | 0.00 | 0.00 | 40 | 1016.7 |
| 20260901193020 | 94 | 77 | 0.0 | 4.0 | 0.00 | 0.00 | 0.00 | 42 | 1017.0 |
| 20260901191526 | 95 | 5 | 1.0 | 4.0 | 0.00 | 0.00 | 0.00 | 42 | 1017.1 |
| 20260901190025 | 95 | 5 | 0.0 | 2.0 | 0.00 | 0.00 | 0.00 | 42 | 1017.2 |
| 20260901184504 | 93 | 318 | 0.0 | 3.0 | 0.00 | 0.00 | 0.00 | 45 | 1017.5 |
| 20260901183013 | 97 | 334 | 1.0 | 5.0 | 0.00 | 0.00 | 0.00 | 39 | 1017.7 |
| 20260901181505 | 96 | 288 | 1.0 | 4.0 | 0.00 | 0.00 | 0.00 | 39 | 1018.0 |
| 20260901180007 | 94 | 267 | 0.0 | 3.0 | 0.00 | 0.00 | 0.00 | 41 | 1018.2 |
| 20260901174501 | 93 | 140 | 1.0 | 4.0 | 0.00 | 0.00 | 0.00 | 45 | 1018.5 |
| 20260901173005 | 92 | 341 | 0.0 | 4.0 | 0.00 | 0.00 | 0.00 | 45 | 1018.7 |
| 20260901171504 | 92 | 161 | 1.0 | 5.0 | 0.00 | 0.00 | 0.00 | 48 | 1018.7 |
| 20260901170004 | 86 | 331 | 1.0 | 4.0 | 0.00 | 0.00 | 0.00 | 63 | 1018.9 |